Location: Amsterdam
(30.7274°N, 84.4357°W)
Time: 16:53:45
(UTC+00:00)

Transit 2A Rocket - Pass Details

Date: 18 February 2026
Orbit: 583 x 900 km, 66.7° (Epoch: 12 March)

Event Time Altitude Azimuth Distance (km) Brightness Sun altitude
Rises 05:48:13 0° 351° (N) 3,314 - -70.9°
Reaches altitude 10° 05:51:32 10° 10° (N) 2,315 - -70.9°
Maximum altitude 05:55:03 18° 52° (NE) 1,766 - -70.9°
Drops below altitude 10° 05:58:22 10° 95° (E) 2,165 - -70.8°
Sets 06:01:19 0° 115° (ESE) 3,015 - -70.8°
